AL YAH 3

Last updated on Tue Oct 08 2024 00:02:41 GMT+0000 (Coordinated Universal Time)

1 43174U 18012A 24281.32454573 -.00000144 00000+0 00000+0 0 9999 2 43174 0.0221 113.1243 0002013 105.0582 255.0209 1.00271774 24657
UTC large
Height (km)
Speed (km/s)
/
Latitude / Longitude
Inclination (degrees)
Orbital Period (minutes)
Azimuth
Elevation
Range (km)
Doppler Factor

Next 0 passes for location: London (51.5072 / 0.1276)

Sorry there are no passes over London.